Alva, OK

4:31 PM CDT on August 22, 2017 (GMT -0500)
Alva Regional

Weather History for KAVK - January, 2014

Change the Weather History Date:

Thursday, January 2, 2014

  Actual Average Record
Temperature  
Mean Temperature 24 °F -  
Max Temperature 41 °F 43 °F 73 °F (1964)
Min Temperature 8 °F 23 °F -1 °F (1979)
Degree Days  
Heating Degree Days 40    
Moisture  
Dew Point 17 °F    
Average Humidity 76    
Maximum Humidity 93    
Minimum Humidity 56    
Precipitation  
Precipitation 0.00 in - - ()
Sea Level Pressure  
Sea Level Pressure 30.39 in    
Wind  
Wind Speed 11 mph (SW)    
Max Wind Speed 21 mph    
Max Gust Speed 24 mph    
Visibility 10 miles    
Events Rain    
Averages and records for this station are not official NWS values.
T = Trace of Precipitation, MM = Missing Value Source: NWS Daily Summary

Daily Weather History Graph

Daily Weather History Graph

Search for Another Location

Airport or City:

Trip Planner

Search our weather history database for the weather conditions in past years. The results will help you decide how hot, cold, wet, or windy it might be!

Date:

Astronomy

Jan. 02, 2014 Rise Set
Actual Time 7:47 AM CST 5:30 PM CST
Civil Twilight 7:18 AM CST 5:59 PM CST
Nautical Twilight 6:46 AM CST 6:31 PM CST
Astronomical Twilight 6:15 AM CST 7:02 PM CST
Moon 8:33 AM CST (1/2) 7:25 PM CST (1/2)
Length of Visible Light 10h 40m
Length of Day
9h 42m
Waxing Crescent, 3% of the Moon is Illuminated
Jan 2
Waxing Crescent
Jan 7
First Quarter
Jan 15
Full
Jan 23
Last Quarter
Jan 30
New

Hourly Weather History & Observations

Time (CST) Temp. Windchill Dew Point Humidity Pressure Visibility Wind Dir Wind Speed Gust Speed Precip Events Conditions
12:10 AM 15.8 °F -1.5 °F 10.4 °F 79% 30.39 in 10.0 mi North 20.7 mph 24.2 mph N/A   Clear
12:30 AM 15.8 °F -1.1 °F 8.6 °F 73% 30.39 in 10.0 mi North 19.6 mph 24.2 mph N/A   Clear
12:50 AM 15.8 °F -0.6 °F 8.6 °F 73% 30.39 in 10.0 mi North 18.4 mph - N/A   Clear
1:10 AM 15.8 °F -0.2 °F 8.6 °F 73% 30.40 in 10.0 mi North 17.3 mph - N/A   Clear
1:30 AM 15.8 °F 0.9 °F 8.6 °F 73% 30.40 in 10.0 mi North 15.0 mph 20.7 mph N/A   Clear
1:50 AM 14.0 °F -1.4 °F 8.6 °F 79% 30.41 in 10.0 mi North 15.0 mph - N/A   Clear
2:10 AM 15.8 °F 0.3 °F 8.6 °F 73% 30.40 in 10.0 mi North 16.1 mph - N/A   Clear
2:30 AM 14.0 °F -0.2 °F 8.6 °F 79% 30.40 in 10.0 mi North 12.7 mph - N/A   Clear
2:50 AM 14.0 °F 3.9 °F 8.6 °F 79% 30.42 in 10.0 mi NNW 6.9 mph - N/A Rain Light Freezing Rain
3:10 AM 12.2 °F 1.7 °F 6.8 °F 79% 30.42 in 10.0 mi NW 6.9 mph - N/A   Clear
3:30 AM 10.4 °F -1.5 °F 6.8 °F 85% 30.43 in 10.0 mi NW 8.1 mph - N/A   Clear
3:50 AM 12.2 °F 0.7 °F 6.8 °F 79% 30.44 in 10.0 mi NNW 8.1 mph - N/A Rain Light Freezing Rain
4:10 AM 12.2 °F -0.2 °F 6.8 °F 79% 30.44 in 10.0 mi NNW 9.2 mph - N/A Rain Light Freezing Rain
4:30 AM 10.4 °F -1.5 °F 6.8 °F 85% 30.43 in 10.0 mi NW 8.1 mph - N/A   Clear
4:50 AM 10.4 °F -0.4 °F 6.8 °F 85% 30.43 in 10.0 mi NW 6.9 mph - N/A   Clear
5:10 AM 8.6 °F -4.7 °F 5.0 °F 85% 30.43 in 10.0 mi NNW 9.2 mph - N/A   Clear
5:30 AM 10.4 °F -1.5 °F 6.8 °F 85% 30.43 in 10.0 mi NW 8.1 mph - N/A   Clear
5:50 AM 8.6 °F 0.1 °F 5.0 °F 85% 30.43 in 10.0 mi NW 4.6 mph - N/A   Clear
6:10 AM 8.6 °F -2.6 °F 5.0 °F 85% 30.44 in 10.0 mi WNW 6.9 mph - N/A   Clear
6:30 AM 8.6 °F -4.7 °F 3.2 °F 79% 30.44 in 10.0 mi WSW 9.2 mph - N/A   Clear
6:50 AM 8.6 °F -5.5 °F 5.0 °F 85% 30.44 in 10.0 mi WSW 10.4 mph - N/A   Clear
7:10 AM 10.4 °F -2.4 °F 5.0 °F 79% 30.44 in 10.0 mi WSW 9.2 mph - N/A   Clear
7:30 AM 8.6 °F -1.3 °F 5.0 °F 85% 30.44 in 10.0 mi West 5.8 mph - N/A   Clear
7:50 AM 10.4 °F 0.8 °F 6.8 °F 85% 30.45 in 9.0 mi West 5.8 mph - N/A   Clear
8:10 AM 10.4 °F 0.8 °F 6.8 °F 85% 30.44 in 8.0 mi WSW 5.8 mph - N/A   Clear
8:30 AM 10.4 °F 2.2 °F 6.8 °F 85% 30.43 in 8.0 mi South 4.6 mph - N/A   Clear
8:50 AM 10.4 °F 0.8 °F 6.8 °F 85% 30.45 in 8.0 mi WSW 5.8 mph - N/A   Clear
9:10 AM 14.0 °F 3.9 °F 8.6 °F 79% 30.45 in 8.0 mi WSW 6.9 mph - N/A   Clear
9:30 AM 15.8 °F 5.1 °F 10.4 °F 79% 30.46 in 8.0 mi West 8.1 mph - N/A   Clear
9:50 AM 17.6 °F 10.7 °F 14.0 °F 86% 30.46 in 8.0 mi West 4.6 mph - N/A   Clear
10:10 AM 21.2 °F 12.6 °F 15.8 °F 80% 30.46 in 9.0 mi WSW 6.9 mph - N/A   Clear
10:30 AM 24.8 °F 17.9 °F 17.6 °F 74% 30.47 in 10.0 mi West 5.8 mph - N/A   Clear
10:50 AM 26.6 °F 18.2 °F 17.6 °F 69% 30.46 in 10.0 mi WSW 8.1 mph - N/A   Clear
11:10 AM 26.6 °F 16.8 °F 17.6 °F 69% 30.46 in 10.0 mi WSW 10.4 mph - N/A   Clear
11:30 AM 28.4 °F 18.0 °F 17.6 °F 64% 30.45 in 10.0 mi WSW 12.7 mph - N/A   Clear
11:50 AM 28.4 °F 18.5 °F 19.4 °F 69% 30.44 in 10.0 mi WSW 11.5 mph - N/A   Clear
12:10 PM 30.2 °F 20.2 °F 19.4 °F 64% 30.43 in 10.0 mi SW 12.7 mph - N/A   Clear
12:30 PM 30.2 °F 20.2 °F 19.4 °F 64% 30.41 in 10.0 mi SSW 12.7 mph - N/A   Clear
12:50 PM 32.0 °F 23.0 °F 21.2 °F 64% 30.40 in 10.0 mi SW 11.5 mph - N/A   Clear
1:10 PM 32.0 °F 23.6 °F 23.0 °F 69% 30.38 in 10.0 mi SSW 10.4 mph - N/A   Clear
1:30 PM 33.8 °F 26.4 °F 23.0 °F 65% 30.37 in 10.0 mi SSW 9.2 mph - N/A   Clear
1:50 PM 35.6 °F 29.9 °F 24.8 °F 65% 30.36 in 10.0 mi SW 6.9 mph - N/A   Clear
2:10 PM 37.4 °F 32.8 °F 24.8 °F 60% 30.35 in 10.0 mi SSW 5.8 mph - N/A   Clear
2:30 PM 39.2 °F 35.9 °F 24.8 °F 56% 30.34 in 10.0 mi SSW 4.6 mph - N/A   Clear
2:50 PM 39.2 °F 37.0 °F 26.6 °F 61% 30.33 in 10.0 mi SSW 3.5 mph - N/A   Clear
3:10 PM 41.0 °F 39.0 °F 26.6 °F 57% 30.33 in 10.0 mi South 3.5 mph - N/A   Clear
3:30 PM 41.0 °F 39.0 °F 26.6 °F 57% 30.33 in 10.0 mi South 3.5 mph - N/A   Clear
3:50 PM 41.0 °F 39.0 °F 26.6 °F 57% 30.33 in 10.0 mi SE 3.5 mph - N/A   Clear
4:10 PM 41.0 °F 36.4 °F 28.4 °F 61% 30.33 in 10.0 mi SE 6.9 mph - N/A   Clear
4:30 PM 41.0 °F 35.2 °F 26.6 °F 57% 30.32 in 10.0 mi SSE 9.2 mph - N/A   Clear
4:50 PM 39.2 °F 33.0 °F 28.4 °F 65% 30.32 in 10.0 mi SE 9.2 mph - N/A   Clear
5:10 PM 37.4 °F 31.4 °F 26.6 °F 65% 30.33 in 10.0 mi SE 8.1 mph - N/A   Clear
5:30 PM 35.6 °F 28.6 °F 26.6 °F 70% 30.32 in 10.0 mi SE 9.2 mph - N/A   Clear
5:50 PM 32.0 °F 23.6 °F 26.6 °F 80% 30.32 in 10.0 mi SSE 10.4 mph - N/A   Clear
6:10 PM 32.0 °F 23.6 °F 24.8 °F 75% 30.33 in 10.0 mi SSE 10.4 mph - N/A   Clear
6:30 PM 32.0 °F 23.6 °F 24.8 °F 75% 30.33 in 10.0 mi SSE 10.4 mph - N/A   Clear
6:50 PM 32.0 °F 23.6 °F 24.8 °F 75% 30.33 in 10.0 mi SSE 10.4 mph - N/A   Clear
7:10 PM 32.0 °F 24.2 °F 23.0 °F 69% 30.33 in 10.0 mi SSE 9.2 mph - N/A   Clear
7:30 PM 30.2 °F 21.3 °F 23.0 °F 75% 30.33 in 10.0 mi SSE 10.4 mph - N/A   Clear
7:50 PM 28.4 °F 19.1 °F 23.0 °F 80% 30.33 in 10.0 mi SSE 10.4 mph - N/A   Clear
8:10 PM 28.4 °F 19.7 °F 23.0 °F 80% 30.33 in 10.0 mi SSE 9.2 mph - N/A   Clear
8:30 PM 28.4 °F 19.7 °F 23.0 °F 80% 30.33 in 10.0 mi SSE 9.2 mph - N/A   Clear
8:50 PM 26.6 °F 17.5 °F 23.0 °F 86% 30.33 in 10.0 mi SSE 9.2 mph - N/A   Clear
9:10 PM 26.6 °F 17.5 °F 23.0 °F 86% 30.32 in 10.0 mi SSE 9.2 mph - N/A   Clear
9:30 PM 26.6 °F 17.5 °F 23.0 °F 86% 30.33 in 10.0 mi SSE 9.2 mph - N/A   Clear
9:50 PM 26.6 °F 18.2 °F 23.0 °F 86% 30.32 in 10.0 mi SE 8.1 mph - N/A   Clear
10:10 PM 26.6 °F 20.0 °F 23.0 °F 86% 30.33 in 10.0 mi SE 5.8 mph - N/A   Clear
10:30 PM 24.8 °F 19.1 °F 21.2 °F 86% 30.33 in 10.0 mi ESE 4.6 mph - N/A   Clear
10:50 PM 24.8 °F 15.3 °F 23.0 °F 93% 30.32 in 10.0 mi SE 9.2 mph - N/A   Clear
11:10 PM 24.8 °F 14.6 °F 21.2 °F 86% 30.32 in 10.0 mi SE 10.4 mph - N/A   Clear
11:30 PM 24.8 °F 14.6 °F 21.2 °F 86% 30.32 in 10.0 mi SSE 10.4 mph - N/A   Clear
11:50 PM 24.8 °F 14.6 °F 21.2 °F 86% 30.31 in 10.0 mi SSE 10.4 mph - N/A   Clear